When you browse on this site, cookies collect data to enhance your experience and personalize the content and advertising you see.
Visit our Privacy Policy to learn more. By continuing to use the site, you agree to this use of cookies and data.
  • Em Portugal
  • Lista de países
  • Para 7 dias
  • Temperatura da água
  • Mapas de satélite
  • Mapa do tempo
  • Widgets de tempo
  • user-avatar
    Iniciar Sessão

    Previsão horária em Wexford

    Hoje, 20 Novembro, Terça-feira

    Tempo Temperatura Precipitação Vento Pressão Humidade
    00:00 +3°C° 0 mm 9 m/s 763 mmHg 81%
    01:00 +3°C° 0.1 mm 9 m/s 762 mmHg 82%
    02:00 +3°C° 0.1 mm 9 m/s 762 mmHg 82%
    03:00 +2°C° 0.1 mm 9 m/s 762 mmHg 82%
    04:00 +2°C° 0.1 mm 9 m/s 762 mmHg 82%
    05:00 +2°C° 0.1 mm 9 m/s 762 mmHg 82%
    06:00 +2°C° 0 mm 9 m/s 761 mmHg 82%
    07:00 +3°C° 0.1 mm 9 m/s 761 mmHg 82%
    08:00 +3°C° 0.1 mm 9 m/s 761 mmHg 82%
    09:00 +3°C° 0.1 mm 9 m/s 760 mmHg 82%
    10:00 +5°C° 0.2 mm 9 m/s 760 mmHg 80%
    11:00 +5°C° 0.2 mm 10 m/s 760 mmHg 77%
    12:00 +6°C° 0.2 mm 10 m/s 759 mmHg 75%
    13:00 +6°C° 0.1 mm 9 m/s 759 mmHg 75%
    14:00 +6°C° 0.1 mm 9 m/s 758 mmHg 76%
    15:00 +5°C° 0.1 mm 9 m/s 757 mmHg 76%
    16:00 +5°C° 0.4 mm 9 m/s 757 mmHg 79%
    17:00 +3°C° 0.4 mm 9 m/s 757 mmHg 81%
    18:00 +3°C° 0.4 mm 9 m/s 756 mmHg 84%
    19:00 +3°C° 0.4 mm 9 m/s 756 mmHg 84%
    20:00 +4°C° 0.4 mm 8 m/s 756 mmHg 85%
    21:00 +4°C° 0.4 mm 8 m/s 756 mmHg 85%
    22:00 +2°C° 0.1 mm 8 m/s 756 mmHg 85%
    23:00 +3°C° 0.1 mm 7 m/s 756 mmHg 85%

    Amanhã, 21 Novembro, Quarta-feira

    Tempo Temperatura Precipitação Vento Pressão Humidade
    00:00 +2°C° 0.1 mm 7 m/s 755 mmHg 86%
    01:00 +2°C° 0.1 mm 7 m/s 755 mmHg 86%
    02:00 +1°C° 0.1 mm 6 m/s 755 mmHg 87%
    03:00 +1°C° 0.1 mm 6 m/s 755 mmHg 88%
    04:00 +1°C° 0.1 mm 5 m/s 754 mmHg 88%
    05:00 +1°C° 0.1 mm 4 m/s 754 mmHg 89%
    06:00 +1°C° 0.1 mm 4 m/s 754 mmHg 90%
    07:00 +3°C° 0.2 mm 3 m/s 754 mmHg 90%
    08:00 +3°C° 0.2 mm 3 m/s 754 mmHg 90%
    09:00 +3°C° 0.2 mm 3 m/s 754 mmHg 90%
    10:00 +4°C° 0.2 mm 3 m/s 754 mmHg 87%
    11:00 +4°C° 0.2 mm 4 m/s 755 mmHg 85%
    12:00 +5°C° 0.2 mm 4 m/s 755 mmHg 82%
    13:00 +5°C° 0.2 mm 4 m/s 755 mmHg 82%
    14:00 +5°C° 0.2 mm 4 m/s 755 mmHg 83%
    15:00 +5°C° 0.2 mm 4 m/s 756 mmHg 84%
    16:00 +4°C° 0.1 mm 4 m/s 756 mmHg 86%
    17:00 +4°C° 0.1 mm 4 m/s 757 mmHg 88%
    18:00 +3°C° 0.1 mm 4 m/s 757 mmHg 90%
    19:00 +2°C° 0 mm 5 m/s 757 mmHg 89%
    20:00 +2°C° 0 mm 6 m/s 758 mmHg 88%
    21:00 +3°C° 0 mm 7 m/s 758 mmHg 87%
    22:00 +4°C° 0.2 mm 8 m/s 758 mmHg 87%
    23:00 +5°C° 0.2 mm 9 m/s 759 mmHg 86%

    Depois de amanhã, 22 Novembro, Quinta-feira

    Tempo Temperatura Precipitação Vento Pressão Humidade
    00:00 +6°C° 0.2 mm 10 m/s 759 mmHg 86%
    01:00 +5°C° 0.1 mm 9 m/s 759 mmHg 86%
    02:00 +5°C° 0.1 mm 9 m/s 760 mmHg 87%
    03:00 +5°C° 0.1 mm 8 m/s 760 mmHg 88%
    04:00 +4°C° 0 mm 8 m/s 760 mmHg 88%
    05:00 +4°C° 0 mm 8 m/s 760 mmHg 88%
    06:00 +4°C° 0 mm 8 m/s 760 mmHg 88%
    07:00 +2°C° 0 mm 8 m/s 760 mmHg 88%
    08:00 +2°C° 0 mm 8 m/s 761 mmHg 88%
    09:00 +2°C° 0 mm 8 m/s 761 mmHg 88%
    10:00 +2°C° 0 mm 8 m/s 761 mmHg 85%
    11:00 +4°C° 0 mm 8 m/s 761 mmHg 82%
    12:00 +5°C° 0 mm 8 m/s 760 mmHg 79%
    13:00 +4°C° 0 mm 8 m/s 760 mmHg 78%
    14:00 +4°C° 0 mm 7 m/s 760 mmHg 78%
    15:00 +4°C° 0 mm 7 m/s 760 mmHg 78%
    16:00 +3°C° 0 mm 7 m/s 760 mmHg 81%
    17:00 +3°C° 0 mm 7 m/s 760 mmHg 83%
    18:00 +2°C° 0 mm 7 m/s 759 mmHg 86%
    19:00 +3°C° 0 mm 7 m/s 759 mmHg 87%
    20:00 +3°C° 0 mm 7 m/s 759 mmHg 87%
    21:00 +4°C° 0 mm 7 m/s 759 mmHg 87%
    22:00 +4°C° 0.1 mm 7 m/s 759 mmHg 88%
    23:00 +5°C° 0.1 mm 7 m/s 759 mmHg 89%

    23 Novembro, Sexta-feira

    Tempo Temperatura Precipitação Vento Pressão Humidade
    00:00 +5°C° 0.1 mm 7 m/s 759 mmHg 90%
    01:00 +5°C° 0.1 mm 7 m/s 759 mmHg 91%
    02:00 +5°C° 0.1 mm 7 m/s 759 mmHg 91%
    03:00 +6°C° 0.1 mm 8 m/s 759 mmHg 92%
    04:00 +6°C° 0.2 mm 7 m/s 759 mmHg 92%
    05:00 +6°C° 0.2 mm 7 m/s 759 mmHg 92%
    06:00 +6°C° 0.2 mm 7 m/s 759 mmHg 92%
    07:00 +7°C° 0.1 mm 6 m/s 759 mmHg 92%
    08:00 +7°C° 0.1 mm 6 m/s 759 mmHg 93%
    09:00 +7°C° 0.1 mm 5 m/s 759 mmHg 93%
    10:00 +8°C° 0.1 mm 5 m/s 759 mmHg 91%
    11:00 +8°C° 0.1 mm 5 m/s 759 mmHg 90%
    12:00 +9°C° 0.1 mm 5 m/s 759 mmHg 89%
    13:00 +9°C° 0 mm 5 m/s 759 mmHg 89%
    14:00 +9°C° 0 mm 5 m/s 759 mmHg 90%
    15:00 +8°C° 0 mm 5 m/s 758 mmHg 91%
    16:00 +8°C° 0 mm 5 m/s 758 mmHg 92%
    17:00 +7°C° 0 mm 5 m/s 759 mmHg 94%
    18:00 +5°C° 0 mm 6 m/s 759 mmHg 96%
    19:00 +6°C° 0.1 mm 5 m/s 759 mmHg 95%
    20:00 +6°C° 0.1 mm 5 m/s 759 mmHg 95%
    21:00 +6°C° 0.1 mm 5 m/s 759 mmHg 95%
    22:00 +6°C° 0.1 mm 5 m/s 759 mmHg 95%
    23:00 +6°C° 0.1 mm 5 m/s 759 mmHg 94%

    24 Novembro, Sábado

    Tempo Temperatura Precipitação Vento Pressão Humidade
    00:00 +7°C° 0.1 mm 5 m/s 759 mmHg 94%
    01:00 +6°C° 0.1 mm 5 m/s 759 mmHg 95%
    02:00 +6°C° 0.1 mm 5 m/s 760 mmHg 95%
    03:00 +6°C° 0.1 mm 5 m/s 760 mmHg 95%
    04:00 +6°C° 0 mm 5 m/s 760 mmHg 95%
    05:00 +5°C° 0 mm 5 m/s 760 mmHg 95%
    06:00 +5°C° 0 mm 5 m/s 760 mmHg 95%
    07:00 +5°C° 0 mm 5 m/s 760 mmHg 94%
    08:00 +5°C° 0 mm 5 m/s 761 mmHg 94%
    09:00 +5°C° 0 mm 4 m/s 761 mmHg 93%
    10:00 +6°C° 0 mm 4 m/s 761 mmHg 90%
    11:00 +7°C° 0 mm 4 m/s 761 mmHg 87%
    12:00 +8°C° 0 mm 4 m/s 762 mmHg 84%
    13:00 +7°C° 0 mm 4 m/s 761 mmHg 84%
    14:00 +7°C° 0 mm 4 m/s 761 mmHg 84%
    15:00 +7°C° 0 mm 4 m/s 761 mmHg 84%
    16:00 +7°C° 0 mm 4 m/s 762 mmHg 86%
    17:00 +6°C° 0 mm 4 m/s 762 mmHg 88%
    18:00 +5°C° 0 mm 4 m/s 762 mmHg 90%
    19:00 +5°C° 0 mm 4 m/s 762 mmHg 91%
    20:00 +5°C° 0 mm 4 m/s 763 mmHg 91%
    21:00 +5°C° 0 mm 4 m/s 763 mmHg 92%
    22:00 +5°C° 0 mm 4 m/s 763 mmHg 92%
    23:00 +4°C° 0 mm 4 m/s 763 mmHg 93%

    25 Novembro, Domingo

    Tempo Temperatura Precipitação Vento Pressão Humidade
    00:00 +4°C° 0 mm 3 m/s 763 mmHg 93%
    01:00 +4°C° 0 mm 3 m/s 763 mmHg 93%
    02:00 +5°C° 0 mm 3 m/s 763 mmHg 93%
    03:00 +5°C° 0 mm 3 m/s 763 mmHg 92%
    04:00 +4°C° 0 mm 3 m/s 763 mmHg 93%
    05:00 +4°C° 0 mm 3 m/s 763 mmHg 93%
    06:00 +4°C° 0 mm 4 m/s 763 mmHg 94%
    07:00 +4°C° 0 mm 3 m/s 763 mmHg 93%
    08:00 +4°C° 0 mm 3 m/s 763 mmHg 93%
    09:00 +4°C° 0 mm 3 m/s 764 mmHg 93%
    10:00 +5°C° 0 mm 3 m/s 764 mmHg 89%
    11:00 +6°C° 0 mm 4 m/s 764 mmHg 85%
    12:00 +7°C° 0 mm 4 m/s 763 mmHg 82%
    13:00 +7°C° 0 mm 4 m/s 763 mmHg 83%
    14:00 +7°C° 0 mm 4 m/s 763 mmHg 85%
    15:00 +7°C° 0 mm 4 m/s 763 mmHg 87%
    16:00 +7°C° 0.1 mm 5 m/s 763 mmHg 88%
    17:00 +6°C° 0.1 mm 5 m/s 763 mmHg 90%
    18:00 +5°C° 0.1 mm 6 m/s 762 mmHg 92%
    19:00 +5°C° 0.2 mm 6 m/s 762 mmHg 91%
    20:00 +5°C° 0.2 mm 6 m/s 762 mmHg 91%
    21:00 +5°C° 0.2 mm 7 m/s 762 mmHg 91%
    22:00 +5°C° 0.1 mm 7 m/s 762 mmHg 91%
    23:00 +5°C° 0.1 mm 8 m/s 762 mmHg 91%
    Mostrar mais